Theta_e
308 310 311 311 312 312 310 310 309 309 308 307 306 307 307 307 307 307 308 307 305 305 307 308 308 309 309 310 310 311 312 311 311 311 311 311 311 311 311 311 311 310 312 313 313 313 313 313 313 313 313 312 312 312 312 311 312 312 312 312 312 312 312 312 312 312 311 311 311 311 311 310 311 311 311 311 311 311 311 312 312 312 313 313 313 312
308 311 312 312 312 311 309 308 308 307 307 306 306 307 307 307 307 307 308 307 305 305 308 309 309 309 310 310 311 312 312 312 311 312 312 312 312 312 311 311 311 311 312 312 312 313 313 314 314 313 313 313 312 312 312 312 312 312 312 312 312 312 312 312 312 312 312 311 311 311 311 311 311 311 310 311 310 311 311 311 311 311 312 312 313 312
310 312 313 312 310 308 307 306 306 306 306 307 307 307 308 308 308 308 308 306 304 305 308 309 309 310 311 311 312 313 313 313 314 313 312 313 313 313 312 312 312 311 311 311 312 312 312 313 313 312 312 312 312 312 312 313 312 312 313 312 312 312 312 312 312 312 312 311 311 311 311 310 310 310 310 310 311 311 311 311 311 311 312 312 312 312
314 314 312 310 308 307 307 305 305 306 306 307 307 308 309 309 309 309 309 306 305 306 307 308 309 311 313 314 314 315 314 314 314 313 312 311 312 312 312 312 311 311 311 311 311 311 311 311 311 311 312 312 312 313 313 313 313 313 313 313 313 313 312 312 312 312 311 311 311 310 310 310 310 310 310 310 310 310 311 311 311 311 311 312 311 311
316 312 307 307 306 307 308 307 306 307 309 309 308 308 309 309 309 309 309 308 308 308 307 308 312 315 316 316 316 316 315 314 313 313 312 311 311 310 310 309 310 310 309 309 310 310 311 311 311 311 312 312 312 313 313 313 313 313 313 313 313 313 312 313 313 311 311 311 310 310 310 310 310 310 309 310 310 310 311 311 311 311 311 311 311 311
315 310 307 308 308 307 309 309 308 309 312 312 310 308 309 309 309 309 309 308 311 312 309 309 315 318 317 317 318 316 314 314 314 313 312 312 311 309 309 309 310 310 310 310 310 310 310 310 311 310 311 312 312 313 313 313 313 313 312 312 312 312 312 312 311 311 311 311 311 310 311 310 310 310 310 310 310 310 310 311 311 311 311 311 311 311
311 308 308 310 310 309 310 310 310 309 311 314 311 309 308 309 309 309 309 309 312 314 311 309 313 317 317 317 317 315 315 314 313 312 311 312 311 310 310 310 310 310 310 311 311 311 311 311 311 310 310 311 312 312 312 312 312 312 312 312 312 312 312 311 311 311 311 311 311 311 311 311 311 311 310 310 310 310 310 310 311 311 311 311 311 312
310 308 308 309 310 311 311 312 310 308 311 313 310 308 308 308 309 310 310 310 311 311 311 310 310 313 315 316 316 315 315 314 312 312 312 312 313 311 310 310 310 310 310 312 311 311 312 312 311 310 311 312 312 312 312 312 313 313 313 312 312 312 311 311 311 311 311 311 311 311 311 311 311 310 310 310 310 310 310 310 311 311 311 311 311 311
309 309 309 309 309 311 312 312 309 308 311 311 308 307 309 308 310 310 310 311 311 310 313 311 309 312 315 316 317 316 314 314 313 313 312 313 314 313 311 310 310 310 310 312 311 310 311 312 311 311 312 312 313 313 313 313 313 313 313 313 313 313 313 312 312 312 312 312 312 311 311 311 310 310 310 310 310 310 310 310 310 310 310 311 311 311
309 308 308 309 310 311 310 309 307 308 310 309 307 307 309 309 310 310 310 311 310 311 314 312 309 312 317 317 317 316 314 314 314 313 313 314 314 314 312 310 310 310 311 312 312 311 311 311 312 312 312 313 313 313 314 313 313 312 312 312 312 312 313 313 313 313 313 313 313 312 311 311 310 310 310 310 310 310 310 310 310 310 310 310 310 310
308 306 306 308 310 310 309 306 305 307 308 307 308 309 310 310 309 308 309 309 311 314 314 310 307 310 315 317 317 315 314 313 313 313 313 313 313 314 313 311 310 310 310 311 312 312 313 313 313 313 313 314 314 314 313 313 312 312 312 312 311 312 312 312 313 313 313 313 313 312 312 311 310 310 309 309 310 310 310 310 310 310 310 310 310 310
309 308 308 308 308 307 308 307 305 305 306 307 309 310 312 313 310 310 309 309 313 317 312 307 306 308 312 316 315 314 313 312 312 312 312 312 312 312 313 312 310 309 310 310 311 312 313 313 313 314 313 313 313 313 312 312 312 312 312 312 311 311 311 312 312 313 313 313 312 312 312 311 310 310 310 310 310 310 310 310 311 310 310 310 310 310
310 311 310 308 307 307 309 310 308 306 306 307 309 310 314 316 315 315 314 312 315 316 309 306 306 308 311 313 313 313 313 312 312 312 311 311 311 311 311 311 309 309 310 310 311 312 313 313 313 313 313 312 312 312 312 312 312 312 311 311 311 311 311 311 312 312 313 313 313 312 312 311 311 311 311 311 311 311 311 311 311 310 310 310 310 310
310 311 310 309 308 308 309 310 310 310 308 309 310 311 315 317 317 318 316 313 314 313 307 305 307 311 313 313 313 312 312 311 310 310 310 309 310 310 309 308 307 308 310 310 311 312 312 313 313 312 312 312 311 311 311 311 311 311 311 311 311 311 312 311 312 312 312 313 312 312 312 312 312 312 311 311 311 311 311 311 310 310 310 310 310 310
312 312 310 309 309 307 308 309 310 311 310 310 310 310 314 315 316 317 316 314 314 312 308 305 309 314 314 314 314 312 311 310 309 307 307 307 307 307 307 306 307 308 309 310 311 311 312 313 312 312 311 311 311 311 311 311 311 311 311 311 311 311 312 312 312 312 312 312 312 312 312 312 312 312 311 311 311 311 311 310 310 310 310 310 310 310
310 311 309 305 304 305 307 308 307 310 311 309 308 310 312 312 313 314 311 310 309 309 309 308 311 313 313 313 312 311 311 310 308 305 305 306 306 306 307 307 307 309 310 310 311 311 312 313 312 311 311 311 311 311 311 311 311 311 311 311 311 311 312 312 312 312 312 312 312 312 312 312 312 311 311 311 311 311 311 310 310 310 310 310 310 310
309 309 306 303 303 303 304 305 305 308 311 308 308 310 309 307 310 312 309 305 305 308 311 310 310 311 311 312 312 311 311 310 309 307 306 307 306 307 308 307 307 309 311 311 311 311 311 312 312 312 311 311 311 311 311 311 311 311 311 311 311 311 311 311 311 311 311 311 312 312 312 312 312 311 311 311 311 311 311 310 310 310 310 310 310 309
310 310 307 305 307 304 300 302 305 305 307 308 310 309 307 305 307 310 311 309 308 312 312 308 309 310 310 312 313 312 311 311 310 309 309 308 307 307 307 307 308 309 310 310 310 310 310 310 311 311 311 310 310 310 310 310 310 310 309 309 309 309 309 309 309 309 309 310 310 310 311 311 311 311 311 311 311 311 310 310 310 310 310 310 310 309
309 310 308 303 305 304 301 304 308 305 304 306 307 305 305 309 310 308 310 312 311 312 311 308 307 308 309 311 312 312 311 311 310 310 310 309 308 308 306 306 308 309 310 310 310 310 310 310 310 310 310 310 309 309 308 308 308 308 307 307 307 308 308 308 308 308 308 308 308 308 308 309 309 310 310 311 311 311 310 310 310 310 310 310 309 309
308 309 310 303 303 305 304 307 310 309 305 304 305 304 304 307 309 308 308 309 309 310 310 309 309 309 310 310 310 310 310 310 310 310 310 309 308 307 306 306 308 308 309 310 309 310 310 310 310 310 310 310 309 308 307 307 307 307 307 307 308 308 309 309 309 309 309 309 308 307 307 307 307 307 308 309 309 310 310 310 310 310 310 310 310 309
307 308 310 306 302 305 308 309 310 311 309 307 307 307 306 306 306 307 307 305 307 309 309 309 310 312 311 310 309 310 310 309 309 309 309 310 309 307 305 305 307 308 309 310 310 310 310 310 310 310 309 309 308 307 307 307 308 307 308 308 309 309 310 310 310 310 310 310 310 309 308 308 307 307 306 307 307 308 309 309 310 310 310 310 310 309
308 308 309 308 306 308 309 306 304 308 309 309 309 309 309 308 307 309 309 305 303 306 307 307 309 312 311 310 310 309 308 308 307 308 309 310 309 308 306 306 307 308 309 309 309 309 309 309 310 310 309 309 308 307 307 308 308 308 308 308 309 309 310 310 310 310 310 310 310 310 310 309 309 308 307 306 306 306 307 307 308 309 310 310 310 309
307 307 308 309 309 307 304 300 298 300 304 306 308 308 309 309 309 311 312 307 303 304 305 304 307 311 309 308 308 307 307 306 305 306 308 309 309 308 308 308 308 309 309 309 309 309 309 309 309 310 309 309 309 308 308 308 308 308 308 308 308 309 309 310 310 310 310 310 310 310 310 310 310 310 309 308 307 306 306 306 306 307 308 309 309 309
307 308 308 309 308 304 300 299 298 298 302 307 307 306 307 309 309 309 308 307 306 305 305 306 309 312 308 306 308 309 308 307 305 305 306 308 308 309 309 309 309 309 309 309 309 309 309 309 309 309 309 309 310 309 309 309 308 308 308 308 309 309 309 309 309 309 309 309 309 309 309 310 310 310 310 310 309 308 307 306 305 305 306 308 309 308
309 309 309 309 310 308 305 304 304 302 303 307 308 306 307 308 307 306 304 305 306 307 309 309 311 312 309 309 310 309 309 309 308 308 307 309 310 310 310 310 309 309 309 309 309 308 308 308 308 309 309 309 309 309 309 309 309 309 309 309 309 309 309 309 309 309 309 309 309 309 309 309 309 310 310 310 310 310 308 306 305 305 305 306 308 308
309 310 310 310 311 311 310 309 310 308 306 306 306 306 307 307 307 306 307 307 308 308 309 309 310 311 310 310 310 310 310 310 310 310 310 310 310 310 309 309 309 309 309 308 308 308 308 308 308 308 308 308 308 309 309 309 309 309 309 309 309 309 309 309 309 309 309 309 309 309 309 309 309 309 310 310 310 310 309 307 306 305 305 305 307 308
308 308 309 311 311 311 311 310 309 309 308 307 307 306 306 307 307 308 309 309 309 309 308 308 310 311 310 310 310 309 310 310 310 310 310 310 310 310 309 309 309 308 308 308 308 308 308 308 308 308 308 308 308 308 308 309 309 309 309 309 309 309 309 309 308 308 309 309 309 309 309 309 309 309 309 310 310 310 309 308 307 305 305 305 305 307
308 308 308 310 311 311 311 310 308 308 308 308 308 308 306 306 307 308 309 309 309 310 310 308 308 310 310 309 309 309 309 309 309 309 310 310 310 310 309 309 308 308 308 308 308 308 307 308 308 308 308 308 308 308 308 308 308 308 308 308 308 308 308 308 308 308 308 308 309 308 308 308 308 308 309 309 310 309 308 308 307 306 305 304 305 306
309 309 309 309 310 310 309 308 307 306 307 307 307 308 307 307 307 308 309 309 309 310 311 309 309 309 309 308 309 309 308 308 309 309 309 309 309 309 309 308 308 308 308 308 308 307 307 307 308 308 308 308 307 307 307 307 307 307 307 307 307 307 308 307 307 308 308 308 308 308 308 308 308 308 308 308 309 309 308 308 307 306 305 304 305 305
308 310 310 309 309 309 309 308 307 306 306 306 306 307 308 307 307 308 309 309 309 310 310 310 310 310 309 309 309 309 309 309 309 309 309 309 309 309 309 309 309 308 308 308 307 307 307 307 307 307 307 307 307 307 307 307 307 306 306 307 307 307 307 307 307 307 307 307 307 307 307 307 308 308 308 308 309 309 309 308 307 306 305 304 304 304
307 309 309 308 308 309 308 307 307 306 307 308 308 308 307 307 307 307 308 309 309 310 310 310 310 310 309 309 309 309 309 309 309 309 309 309 309 309 309 309 308 308 308 308 307 307 307 307 307 307 307 307 307 306 306 306 306 306 306 306 306 306 306 306 306 306 307 307 307 307 307 307 307 308 308 308 308 308 308 308 307 306 305 304 304 304
306 306 306 306 308 309 308 308 307 307 307 308 308 308 307 307 307 307 307 308 308 309 309 309 309 309 309 309 308 309 309 308 308 308 308 308 308 308 308 308 308 308 308 307 307 307 306 306 306 306 306 306 306 306 306 305 305 305 305 305 306 306 306 306 306 306 306 306 306 306 307 307 307 307 308 308 308 308 308 307 307 306 305 304 304 304
306 306 305 306 308 308 306 306 306 306 308 308 308 308 308 308 308 307 307 308 308 308 309 309 309 309 309 309 308 308 308 308 308 308 308 307 306 307 307 307 307 307 307 307 306 306 306 306 306 305 306 306 306 306 305 305 305 305 305 305 305 305 305 305 306 306 306 306 306 306 307 307 307 307 308 308 308 308 308 307 307 306 305 304 304 304
306 307 306 305 308 307 304 304 305 306 308 308 307 308 309 308 308 308 308 308 307 307 308 308 308 309 308 308 308 308 308 308 309 309 307 306 306 306 306 306 306 307 306 306 306 306 306 306 305 305 306 305 305 305 305 305 305 305 304 304 304 304 305 305 305 305 306 306 306 306 306 307 307 307 308 308 308 308 308 307 306 306 305 304 304 304
305 306 305 305 306 305 303 304 307 308 308 305 304 306 308 307 307 308 308 308 308 308 307 307 308 308 308 308 308 308 309 309 308 308 307 307 307 306 306 306 306 306 306 306 306 306 305 305 305 305 305 305 305 305 305 305 305 305 305 305 304 304 304 304 305 305 305 305 305 306 306 306 307 307 308 309 308 308 307 306 306 306 305 304 304 303
306 306 305 305 305 305 304 305 308 309 307 305 305 304 304 304 305 305 306 307 307 307 307 307 307 307 307 307 308 309 308 308 307 306 306 306 306 306 306 306 306 306 306 306 305 305 305 305 305 305 305 305 305 305 305 305 305 305 305 305 305 305 304 304 304 305 305 305 305 305 306 306 306 307 307 308 307 307 307 306 306 305 305 304 303 303
305 306 306 306 306 307 307 307 307 308 308 307 307 306 304 304 305 305 305 306 306 306 307 306 307 307 307 307 308 308 307 306 306 306 307 306 306 306 305 305 306 305 305 305 305 305 305 305 305 305 304 305 305 305 305 305 305 305 305 305 305 305 305 305 305 305 305 304 305 305 305 305 306 306 307 307 306 306 306 305 305 305 304 304 303 303
304 305 306 306 307 307 307 307 307 308 308 307 306 308 307 305 306 306 305 306 306 306 307 307 306 307 306 307 307 307 306 305 306 307 307 306 305 305 305 305 305 305 305 305 305 305 305 305 304 304 304 305 305 306 306 306 305 305 305 305 305 305 305 305 305 305 305 304 305 305 305 305 306 306 306 306 306 305 305 305 305 305 304 303 303 303
304 305 305 306 307 307 307 308 307 308 309 306 305 308 305 303 305 306 305 306 307 306 307 307 306 307 307 307 307 306 305 305 306 308 307 305 304 304 304 304 304 304 304 304 304 304 304 304 304 304 305 305 305 306 306 306 306 305 305 305 305 305 305 305 305 305 305 305 305 304 305 305 305 305 306 305 305 305 305 305 305 304 304 303 303 303
304 304 305 305 307 307 307 307 307 307 308 305 304 305 302 301 305 307 307 307 306 305 305 305 305 306 306 306 306 305 305 305 307 307 306 304 304 304 304 304 304 303 304 304 304 304 304 304 304 304 305 305 305 305 306 306 306 306 305 305 305 306 305 305 305 305 305 305 305 305 304 304 304 304 304 304 304 304 304 304 304 304 303 303 303 304
303 304 304 304 306 306 307 307 307 307 307 306 304 302 301 302 305 307 306 303 301 301 300 300 301 300 300 302 304 304 304 305 305 304 303 303 303 303 303 303 303 303 304 304 304 304 304 304 304 304 305 305 305 305 305 305 306 306 306 305 306 305 305 305 305 305 305 304 304 305 304 304 304 304 304 304 304 304 304 304 303 303 303 303 304 304
304 305 304 305 305 305 306 307 306 306 307 306 303 301 302 305 306 303 301 297 294 294 295 295 296 294 294 297 299 299 300 301 300 299 299 300 300 301 301 302 302 303 303 304 304 304 304 304 304 303 304 304 304 304 304 305 305 305 305 305 305 305 305 305 305 305 304 304 304 304 304 304 304 303 303 303 303 303 303 303 303 303 303 304 304 305
305 305 305 305 305 305 306 306 306 308 308 306 305 303 303 303 299 295 294 294 291 290 291 292 292 291 291 293 294 294 295 296 296 296 296 296 297 298 298 299 300 301 302 302 302 302 302 303 303 303 303 302 303 303 303 303 304 304 304 304 304 304 304 304 304 304 304 304 303 303 304 303 303 303 302 302 302 302 302 302 302 303 303 304 304 304
304 305 305 305 306 306 306 306 306 304 301 300 302 300 295 292 290 289 291 292 289 288 288 289 289 289 288 289 290 291 292 292 293 294 294 295 296 296 297 297 297 297 298 299 300 300 300 301 301 301 301 301 301 301 301 302 302 303 303 303 303 303 303 303 303 303 302 302 303 303 303 303 302 302 301 301 301 301 301 302 302 302 302 302 302 303
305 305 305 306 306 305 306 306 301 295 291 290 292 291 287 286 287 287 288 288 287 286 286 287 287 287 288 288 288 289 290 289 290 292 293 294 294 294 296 296 295 295 295 296 296 297 297 298 298 299 300 299 299 299 300 300 300 301 301 302 302 302 302 302 302 301 301 301 301 301 301 301 301 301 300 300 301 301 301 301 301 301 300 300 300 300
303 303 305 306 305 305 306 303 296 291 289 288 286 285 285 284 284 285 285 285 285 285 285 285 286 287 288 289 288 287 289 290 290 291 293 293 292 293 294 294 294 294 294 295 295 295 294 294 295 296 297 297 298 298 298 298 298 299 300 301 301 301 301 301 301 301 300 300 300 300 300 299 299 299 299 300 300 300 300 300 300 300 299 299 299 299
300 300 302 304 305 307 305 298 293 290 289 287 286 284 283 283 282 283 283 283 282 283 283 284 285 286 288 289 288 288 289 290 291 291 292 292 292 292 293 293 293 293 293 294 294 294 293 293 292 292 293 294 294 295 296 296 296 297 298 299 299 300 300 300 300 300 300 300 299 299 298 298 298 299 299 299 300 299 299 299 299 299 299 298 298 298
299 299 301 302 304 305 299 292 289 290 287 284 284 283 282 281 281 281 281 281 281 281 281 282 283 283 285 286 287 287 288 289 289 290 290 291 291 292 292 292 293 293 293 293 293 293 293 292 292 292 291 291 292 292 293 294 295 295 296 297 298 298 299 298 298 299 298 299 298 298 298 297 297 298 298 298 298 298 298 298 298 298 298 297 297 297
293 297 298 297 299 301 297 290 288 291 290 285 283 281 280 279 279 279 279 279 279 279 280 281 281 282 282 283 284 285 286 286 287 288 288 288 289 290 291 291 292 293 293 293 292 292 291 292 292 292 292 291 291 291 292 293 293 294 294 295 296 297 297 297 297 297 297 297 297 297 297 297 297 297 297 296 296 297 297 297 297 297 297 296 296 296
289 293 292 293 297 298 292 285 284 288 290 286 282 280 279 278 277 277 277 276 276 277 278 279 280 280 280 280 281 282 283 284 285 286 286 286 286 287 288 289 290 291 292 292 292 292 291 291 291 292 292 292 292 292 292 292 293 293 292 293 294 294 295 295 295 296 296 296 296 296 296 296 296 296 296 296 295 295 295 295 295 295 295 295 295 295
282 283 283 287 291 289 283 278 278 282 284 283 281 279 277 276 276 275 275 274 275 275 276 277 278 278 278 278 278 279 281 282 283 284 284 285 284 284 286 287 287 289 290 290 291 291 291 290 290 290 291 292 292 292 292 292 292 292 291 291 291 292 292 292 293 294 294 294 294 294 294 294 294 294 295 295 295 295 295 294 294 293 293 293 293 292
Wind_Speed
5 5 5 8 10 9 8 9 12 12 10 8 8 9 10 11 13 15 16 9 2 6 12 14 18 20 22 23 21 25 24 20 21 22 23 25 25 25 25 27 27 30 38 40 38 39 38 36 34 33 32 30 30 34 36 37 36 35 36 37 38 36 35 35 36 35 35 34 34 33 33 34 34 35 37 38 40 41 43 44 44 42 40 38 35 33
4 6 10 12 10 6 3 5 10 11 10 9 9 10 9 9 13 15 15 9 1 3 10 14 20 22 21 22 21 22 19 17 18 17 19 23 23 22 23 24 26 30 35 36 35 34 32 32 31 31 31 30 32 35 36 35 35 35 35 36 37 36 36 36 37 36 36 36 36 34 33 33 34 34 34 35 37 39 41 42 42 41 40 38 36 35
5 9 13 9 2 1 2 3 6 9 10 10 7 7 8 7 9 13 9 1 2 3 10 16 19 20 22 22 21 18 14 14 16 15 17 19 19 19 19 20 22 27 31 32 31 27 27 28 28 29 30 31 32 33 33 34 34 34 34 36 37 36 36 36 37 36 36 36 36 35 33 31 30 30 31 32 34 36 37 38 39 39 38 37 36 36
6 7 8 3 5 5 4 3 5 6 7 7 6 6 8 7 5 8 3 1 3 6 11 15 15 17 19 16 15 12 10 12 12 14 16 17 18 19 19 18 20 24 27 30 30 27 25 24 23 25 28 29 31 31 32 32 32 33 34 35 35 35 35 35 35 35 34 34 34 34 32 30 29 28 28 30 32 34 34 35 37 37 38 37 37 37
10 4 3 4 6 6 5 4 6 5 5 7 8 8 9 10 8 9 7 8 11 7 5 11 13 11 8 8 11 6 6 8 9 11 12 13 16 18 19 20 20 23 26 29 31 27 23 22 19 19 23 25 27 28 29 29 29 31 31 31 31 31 32 32 32 32 32 32 33 33 32 31 30 29 29 30 32 33 34 36 37 37 37 36 36 36
12 5 5 3 3 6 6 6 7 6 7 7 8 11 13 13 11 11 10 9 9 4 3 8 10 8 6 11 11 5 5 8 5 5 5 5 7 8 10 12 14 17 19 22 25 24 22 20 17 16 18 21 23 24 24 24 24 25 26 26 27 28 29 29 29 30 31 31 33 34 34 33 32 31 32 31 31 31 33 34 34 34 34 34 34 34
6 3 4 7 8 8 8 9 7 7 7 7 3 8 12 11 9 9 8 6 6 7 3 4 4 8 13 14 6 5 11 10 5 1 1 1 1 1 5 9 12 13 13 14 17 20 20 17 15 16 16 16 18 18 17 17 17 17 17 19 21 22 24 25 27 29 30 31 32 33 33 32 32 32 31 30 28 28 29 30 31 32 32 33 34 34
3 4 4 6 7 8 8 8 7 10 7 5 2 2 5 6 7 6 6 5 5 8 6 3 4 6 10 11 5 8 12 6 3 1 1 0 2 4 7 10 13 14 14 13 12 15 15 14 15 15 15 15 15 15 14 13 12 12 12 13 15 17 19 21 24 26 27 28 28 29 30 31 31 31 30 27 26 26 27 27 28 29 31 32 33 34
2 5 6 7 6 6 7 4 6 12 8 2 3 1 3 3 6 4 4 6 4 7 6 3 4 4 8 10 6 5 6 2 1 5 6 8 8 9 10 12 16 16 14 13 9 7 9 12 14 14 14 14 14 13 12 12 11 11 11 12 13 15 17 19 22 23 24 25 25 26 28 30 30 30 29 27 25 25 24 25 26 27 29 30 31 32
2 1 3 6 6 5 5 1 5 12 6 1 2 2 2 3 4 3 4 5 3 5 6 2 5 4 8 9 5 2 1 2 5 8 9 11 11 11 12 16 20 19 14 11 7 1 6 10 12 13 14 14 13 12 11 10 10 10 10 11 12 14 16 18 20 21 23 23 24 25 27 28 29 29 29 27 26 25 24 24 25 26 27 28 30 32
1 1 1 4 5 2 3 3 2 5 2 2 1 3 4 5 4 2 3 3 3 5 2 2 3 4 6 7 3 0 1 2 7 10 11 13 13 15 17 17 21 20 13 9 7 3 5 9 10 11 12 11 10 10 9 10 10 10 10 10 11 12 14 16 17 19 20 21 22 23 24 25 26 26 27 27 27 26 26 26 26 26 27 28 30 32
7 6 3 4 5 3 4 2 1 1 1 1 2 3 6 4 2 2 3 2 4 4 2 3 2 4 6 6 3 3 3 5 8 10 13 15 16 20 21 17 19 20 12 6 5 3 3 6 8 8 8 8 8 8 9 10 10 11 11 11 11 12 13 15 16 16 17 18 19 20 20 21 22 23 24 24 25 25 25 26 26 26 27 28 30 31
7 9 6 4 5 6 5 3 2 2 2 3 3 2 5 5 3 4 2 2 4 3 2 2 1 4 9 11 13 15 12 9 9 9 13 16 16 20 21 19 20 16 9 5 3 2 1 1 4 5 6 7 8 9 10 11 11 12 12 12 12 12 12 13 14 15 16 17 17 18 18 19 19 20 21 22 23 23 23 24 24 26 27 28 30 31
3 3 6 5 3 7 10 7 4 4 5 6 5 3 4 4 4 4 3 2 3 1 1 2 2 5 8 9 13 15 11 7 8 11 15 15 15 17 18 19 18 10 6 6 3 1 1 3 4 5 7 8 9 9 10 10 11 12 12 13 13 12 12 12 13 14 15 15 15 16 17 17 18 19 20 20 21 21 22 23 24 25 26 27 28 29
3 2 4 5 1 5 11 8 1 2 5 5 3 2 5 4 4 4 3 3 3 3 1 2 1 5 5 4 6 8 8 6 7 10 12 11 10 13 14 17 17 12 8 7 7 6 4 4 6 7 7 7 7 8 9 9 10 10 11 11 12 11 11 11 11 12 12 12 13 14 15 16 17 17 18 19 19 20 21 21 22 23 24 25 26 26
4 4 2 2 2 2 6 2 3 3 4 2 2 2 4 4 4 3 2 2 2 4 3 4 3 4 6 11 13 10 6 3 2 4 7 8 8 11 14 19 23 21 16 11 9 10 6 6 7 8 6 5 6 7 8 9 9 10 10 10 10 11 10 10 10 10 10 11 12 13 13 14 15 16 17 17 18 19 19 20 21 22 23 23 24 24
3 1 3 2 0 1 0 0 1 1 2 3 4 4 1 1 2 4 1 1 1 4 3 3 4 5 6 10 8 3 3 2 2 3 3 6 9 13 16 21 27 30 28 22 17 12 5 9 9 8 7 7 8 8 9 10 10 11 11 10 10 10 10 9 9 9 9 9 10 10 11 12 13 13 14 15 16 17 18 19 20 21 22 23 23 24
3 1 1 1 1 2 2 0 2 2 1 3 3 2 2 1 1 1 2 1 2 5 3 2 6 6 3 4 3 3 7 7 7 7 4 5 8 10 15 21 25 30 32 30 26 20 10 5 8 9 9 10 10 10 11 11 12 12 12 11 10 9 8 7 7 7 7 7 7 8 9 9 10 11 12 13 14 16 17 18 19 20 20 21 22 23
3 2 1 1 0 2 0 2 3 2 1 1 1 0 1 2 2 2 2 2 3 6 4 3 5 5 4 5 5 7 8 8 8 8 6 6 6 6 12 20 24 29 33 31 30 27 18 9 5 7 10 11 11 11 12 12 12 12 11 11 10 10 9 7 6 5 4 4 5 7 8 9 10 11 11 13 14 15 16 17 17 18 18 19 21 23
3 4 1 2 1 1 2 4 5 5 3 1 1 2 0 2 1 1 1 1 2 4 5 3 2 3 6 5 5 8 8 6 6 6 5 6 4 4 10 17 21 26 30 30 30 28 23 17 10 5 8 10 11 12 13 12 12 12 12 12 11 10 8 7 5 4 2 2 2 4 6 8 10 11 12 13 15 16 16 16 16 17 17 18 20 22
2 4 2 2 1 2 4 4 5 6 6 5 5 5 4 2 0 1 1 0 1 3 4 4 4 5 3 3 5 9 7 4 3 4 4 5 4 3 8 13 17 23 28 30 31 31 27 23 16 9 7 9 11 13 13 13 13 13 12 12 11 10 8 6 4 2 1 1 2 3 4 6 8 10 12 14 16 17 17 17 17 17 18 19 20 21
4 4 3 4 3 4 3 1 2 2 2 4 5 6 7 5 3 3 4 1 0 3 2 2 6 8 3 2 4 4 2 2 3 3 5 6 7 9 12 14 18 25 30 32 33 34 32 28 22 15 10 10 12 13 13 14 13 13 12 12 12 11 9 7 5 4 4 5 5 6 6 7 8 9 11 13 15 16 17 18 18 19 19 21 21 22
2 1 3 3 3 2 2 3 2 3 2 0 3 3 5 7 7 6 5 3 3 1 0 1 4 6 2 1 1 1 1 3 1 2 5 8 12 18 21 21 23 28 32 34 34 34 33 33 29 22 15 12 12 14 15 16 16 15 15 14 14 13 11 9 8 7 8 9 9 10 10 11 11 11 12 13 14 15 16 17 18 20 21 22 22 22
3 2 4 4 2 2 3 2 1 2 1 2 4 4 6 7 7 4 2 2 3 4 3 2 5 4 1 2 1 1 2 3 3 6 6 9 14 25 33 32 29 32 36 38 36 34 34 35 33 30 24 18 17 16 17 18 18 19 19 18 18 16 14 12 11 11 13 14 14 15 15 16 16 16 16 15 15 15 15 16 18 20 22 22 23 23
6 4 5 4 3 3 3 3 2 1 3 4 4 6 8 8 4 2 1 1 3 7 8 6 8 5 1 1 1 2 3 6 5 5 6 10 18 29 38 39 35 35 38 39 38 37 37 36 35 34 32 27 24 22 21 21 21 21 22 23 24 22 19 17 16 16 18 19 20 21 21 21 21 21 20 19 18 17 17 17 18 20 21 22 23 23
7 3 6 7 6 6 5 4 3 3 4 4 4 7 11 12 11 6 3 5 6 7 10 9 10 8 2 1 5 6 9 13 13 12 12 14 20 28 35 38 39 38 37 36 38 39 39 38 38 36 34 30 26 24 24 24 24 24 23 23 25 27 26 25 25 25 25 24 25 26 26 26 26 25 24 23 21 19 19 19 20 20 21 22 23 24
2 2 7 8 8 8 4 2 3 3 5 5 7 10 13 14 15 11 6 6 7 7 9 11 13 16 8 3 11 13 12 16 17 15 15 17 21 25 29 33 36 37 39 39 39 40 40 40 39 36 32 30 27 24 23 23 24 25 24 22 22 24 26 28 30 30 31 31 32 31 30 30 29 28 27 26 23 22 21 22 21 21 22 22 24 25
1 3 7 9 10 8 2 2 4 3 4 6 8 11 13 14 16 15 11 9 9 8 10 11 15 21 10 3 15 19 14 16 17 15 17 21 23 25 27 30 33 37 41 42 41 40 39 40 38 35 33 31 29 28 26 25 25 25 25 23 22 22 23 25 27 29 31 32 33 32 32 31 30 30 30 29 26 25 24 24 23 22 23 24 25 27
2 4 6 7 10 9 5 4 4 4 5 6 8 11 12 15 17 18 16 13 12 12 11 11 17 23 14 7 16 21 17 15 14 17 23 24 26 29 28 26 29 36 40 41 40 39 37 38 37 35 34 33 32 31 30 28 28 27 26 24 22 22 22 22 23 24 26 28 29 30 30 30 29 31 33 32 30 29 27 26 25 24 24 26 27 28
2 4 4 6 8 9 9 9 6 7 8 8 11 13 12 15 18 18 18 16 17 20 17 10 17 23 15 10 16 20 23 22 16 19 26 24 25 29 25 21 25 35 39 40 39 37 35 35 36 35 35 35 33 32 31 30 29 28 27 25 23 23 23 23 24 25 25 27 28 27 27 27 28 30 33 35 33 32 29 28 27 26 26 27 28 29
4 3 3 4 5 7 8 8 8 10 10 12 15 16 14 14 15 15 14 14 16 20 16 15 21 19 10 11 16 17 23 28 22 18 21 25 27 24 19 20 27 34 37 37 36 35 35 35 35 35 35 34 33 31 30 29 28 26 25 24 24 24 23 24 25 26 27 28 27 25 25 27 28 29 31 35 35 34 31 29 28 27 27 28 29 30
4 3 3 3 5 6 5 6 7 8 9 16 20 18 17 15 12 13 13 12 15 16 13 14 19 14 9 11 14 12 14 22 24 19 18 20 19 16 14 19 26 30 32 34 35 36 37 37 35 34 33 31 30 28 27 26 25 23 22 22 22 22 23 24 25 26 27 26 25 24 23 25 27 29 31 33 35 35 32 30 30 29 28 29 30 31
4 4 2 3 6 5 1 3 3 2 6 13 13 12 17 17 14 14 13 13 17 14 10 13 14 8 6 9 13 15 15 19 21 16 11 6 5 11 18 20 23 27 32 37 39 37 36 34 31 29 28 27 26 24 24 24 24 23 21 21 21 21 21 23 23 24 25 25 24 23 23 23 26 29 31 32 34 34 33 31 31 31 29 29 30 31
3 5 3 3 5 4 1 4 3 3 10 10 1 6 14 18 19 19 17 15 18 15 12 15 12 6 7 10 14 16 18 22 20 12 11 12 14 19 25 26 30 35 39 42 39 33 29 26 23 22 22 21 21 20 20 21 21 21 21 20 19 19 19 20 21 22 22 23 23 22 22 23 25 27 29 30 31 33 33 32 32 31 30 29 30 31
4 5 3 2 3 2 2 4 3 9 9 3 4 5 6 10 11 14 16 16 16 16 18 20 17 15 16 17 18 20 22 24 21 18 24 33 32 25 26 32 37 37 37 35 30 24 21 19 19 19 18 17 17 18 19 19 17 16 17 17 17 15 15 16 18 19 20 20 21 21 21 21 23 24 25 26 29 31 32 33 32 31 29 29 30 31
6 5 3 2 2 2 2 5 8 9 7 7 6 2 3 2 2 4 11 14 14 16 18 18 18 20 20 19 23 24 18 15 19 27 39 43 36 26 25 29 29 27 26 24 20 16 15 16 17 17 16 16 17 18 19 19 17 14 13 13 14 14 13 14 15 16 17 18 19 19 20 20 21 23 24 26 28 30 31 32 31 29 29 29 30 31
7 5 3 4 4 4 5 6 7 11 14 14 12 7 6 8 8 6 10 11 11 14 15 15 18 22 19 20 23 16 7 8 10 24 35 32 23 18 16 15 16 17 17 15 13 13 14 16 17 16 16 16 17 18 19 20 19 16 14 13 12 12 12 12 13 14 15 16 17 17 18 19 20 22 25 28 29 30 30 30 29 28 28 28 29 30
10 8 6 6 5 4 6 7 6 10 12 5 3 6 7 9 7 6 7 6 7 12 16 16 18 19 16 17 14 2 2 3 6 12 19 15 9 7 7 8 10 12 12 10 12 14 15 15 14 14 13 14 15 18 19 20 20 19 18 17 16 15 13 12 12 13 13 14 14 14 16 17 19 21 24 26 27 27 27 27 27 27 26 27 28 29
12 9 8 7 5 5 7 8 8 11 10 1 7 4 2 4 7 6 4 5 8 14 14 11 14 16 12 11 7 3 3 6 5 6 11 11 8 6 7 11 13 12 11 13 15 15 14 13 12 11 11 12 14 16 18 19 20 20 19 19 19 18 17 16 15 14 13 14 14 14 13 14 16 17 19 21 22 23 24 25 25 25 25 26 28 29
13 10 8 9 9 8 9 9 7 7 7 1 4 0 1 9 10 6 5 4 2 4 6 7 5 9 7 8 6 2 5 6 4 6 12 16 16 15 15 18 18 15 13 15 16 14 12 12 12 11 11 13 14 15 17 18 18 18 19 19 19 19 19 19 18 17 15 14 14 15 14 13 12 13 15 17 19 21 22 23 24 24 25 26 28 29
10 9 8 10 10 8 10 11 7 6 9 6 3 3 5 9 6 6 5 3 7 9 16 17 12 14 15 12 8 5 7 11 13 16 20 24 24 22 20 18 15 12 12 13 13 13 13 13 12 12 13 14 14 16 17 17 16 16 17 17 18 18 18 18 18 18 17 15 13 13 15 14 12 12 13 15 17 19 21 22 22 23 24 25 28 29
8 7 7 9 9 7 9 9 5 7 12 9 6 7 8 7 4 4 1 9 12 11 15 17 16 19 18 13 12 13 16 20 22 22 23 23 23 23 22 20 17 14 12 12 13 13 14 14 14 14 14 13 13 15 16 16 16 16 15 15 16 16 16 16 16 16 16 15 13 12 13 13 13 14 14 16 17 18 19 20 21 22 23 25 27 29
8 8 6 8 8 6 6 7 5 7 8 6 11 7 4 3 2 4 4 10 16 16 16 15 16 19 18 17 18 19 20 23 25 26 26 24 23 22 22 22 22 19 16 14 14 14 14 15 16 16 15 13 12 13 13 14 15 15 16 15 15 15 15 14 14 13 13 14 13 12 11 12 13 14 15 16 17 17 18 18 19 20 22 24 26 28
8 8 5 6 7 6 6 7 6 2 3 6 7 4 3 5 5 6 5 8 14 19 17 15 17 21 20 19 21 22 25 28 29 30 31 29 27 26 23 22 22 22 20 17 15 14 14 15 16 16 16 14 12 12 11 12 12 13 14 14 15 16 17 15 13 12 11 12 12 11 11 11 12 13 14 15 16 16 16 16 17 19 20 22 24 26
9 8 3 4 7 7 6 4 5 7 11 17 16 13 12 10 9 10 10 9 11 16 16 14 17 23 25 24 23 24 28 32 31 30 31 30 28 28 26 24 23 22 21 19 17 15 14 14 15 15 15 13 12 12 12 11 11 12 12 12 13 13 15 16 15 13 12 11 11 10 10 9 10 11 13 14 15 15 15 15 16 18 20 21 22 24
2 2 2 0 5 7 6 5 12 12 12 18 20 18 15 14 13 13 13 12 11 14 16 16 17 23 28 29 28 27 30 33 33 33 32 30 29 28 27 26 24 23 23 23 22 21 19 17 16 15 13 11 11 12 12 11 11 12 13 12 12 12 13 14 14 13 12 12 11 10 9 9 9 10 11 12 14 14 15 16 17 19 20 22 23 24
4 4 3 1 4 7 5 5 10 10 12 15 14 13 15 16 15 14 13 12 12 13 16 18 20 22 25 28 29 30 31 33 33 34 33 31 31 31 28 27 26 25 24 24 24 25 25 23 20 17 14 11 11 12 13 12 11 12 13 13 13 14 13 13 13 13 12 12 12 11 9 9 9 10 11 12 14 15 16 17 19 20 22 23 25 26
4 6 2 1 2 3 3 6 7 10 16 18 17 15 13 13 14 14 12 13 15 15 16 18 20 21 22 25 26 27 29 30 31 32 33 32 31 31 29 28 27 26 25 25 24 24 24 24 24 22 19 16 14 13 14 14 12 12 12 12 13 13 13 13 13 13 13 13 13 12 11 10 10 11 12 13 15 16 17 18 20 22 23 24 26 27
5 4 2 2 3 1 3 7 7 6 10 15 22 21 16 13 14 14 12 14 18 20 20 20 18 17 19 22 24 25 26 28 28 29 31 31 31 31 29 28 28 27 27 26 25 23 23 23 24 24 23 21 19 17 17 17 15 14 12 11 12 12 12 13 14 14 14 14 13 13 12 12 12 12 13 14 16 18 19 19 21 22 23 24 26 27
5 3 3 3 2 2 1 6 7 2 2 5 17 22 17 14 16 16 15 17 20 21 22 22 18 14 15 19 22 23 24 26 27 27 28 29 29 30 30 29 28 28 27 27 26 25 24 23 22 22 23 23 22 21 20 20 19 17 15 12 11 11 12 13 14 15 15 14 14 13 13 13 13 13 14 15 17 18 19 20 21 22 22 23 24 25
4 3 4 3 1 1 4 5 6 4 2 6 16 21 15 14 18 19 18 20 22 21 21 21 17 15 16 19 20 21 23 25 25 26 27 27 28 29 29 28 28 28 28 28 28 27 26 24 23 21 21 21 21 21 21 21 21 21 18 15 13 12 12 13 14 15 15 15 14 13 13 13 14 15 16 17 18 19 20 21 22 22 22 21 22 22
Wind_Direction
185 223 230 234 242 242 230 224 244 269 287 287 281 276 277 284 284 284 290 299 340 295 282 276 282 284 285 284 280 278 277 267 257 256 257 257 255 255 254 255 253 255 265 271 269 267 265 263 261 258 254 249 238 233 236 239 241 242 241 242 242 241 240 240 240 239 234 230 229 228 229 230 229 228 228 228 229 230 232 234 235 235 235 234 234 235
186 229 239 235 241 261 265 241 253 266 270 266 265 275 278 272 277 283 291 306 4 259 280 289 290 286 283 282 279 279 278 267 258 255 255 256 256 255 255 256 258 264 272 275 274 271 266 260 255 253 250 244 238 236 238 240 240 240 240 241 242 240 239 238 239 238 234 231 231 233 235 235 233 232 232 231 231 231 232 234 234 234 233 233 233 234
219 239 247 240 188 140 257 245 249 253 259 261 256 268 276 273 284 285 282 320 103 247 291 303 300 291 285 279 276 277 275 268 263 257 256 260 262 261 260 260 264 272 276 278 277 272 266 260 256 254 249 244 241 239 239 239 239 240 240 240 240 239 239 239 239 238 235 233 232 234 235 235 235 235 235 234 234 235 235 235 235 234 232 232 232 233
228 240 256 236 139 173 218 213 219 243 249 243 242 253 268 278 292 286 275 86 286 273 288 297 292 284 282 279 274 264 257 271 273 262 259 261 264 266 267 269 273 276 277 278 278 274 270 265 259 254 248 243 241 239 238 238 238 240 240 240 240 240 240 239 238 235 233 232 231 231 231 232 233 234 234 235 235 235 234 234 234 232 230 229 230 230
241 197 115 104 136 183 214 198 199 239 260 233 230 242 262 271 265 266 290 317 302 275 277 306 298 282 283 297 301 285 243 268 269 263 268 265 267 275 278 281 284 281 278 277 276 274 270 262 255 250 245 240 237 236 237 238 238 239 240 241 240 240 239 237 234 230 228 228 226 226 227 227 228 228 228 230 231 231 231 231 231 230 229 229 229 230
250 194 146 162 166 188 225 240 208 215 272 263 223 223 245 264 268 273 293 317 311 283 60 4 324 299 312 312 314 334 316 316 306 279 297 293 280 289 295 304 309 299 288 280 274 269 263 256 249 244 240 235 233 234 235 235 236 237 237 237 235 233 232 230 226 223 223 224 224 224 226 227 228 228 230 232 234 234 233 233 232 231 230 230 231 231
252 177 182 230 229 214 233 254 210 182 256 281 230 216 238 258 270 279 290 303 307 300 340 28 302 290 309 311 327 0 329 341 29 58 63 114 244 326 337 339 339 332 322 303 279 266 259 250 240 236 234 231 228 226 224 223 224 226 228 227 226 224 223 222 220 220 223 224 225 227 228 230 232 234 237 239 240 238 236 234 232 231 230 229 230 229
176 165 183 212 221 221 232 247 193 174 229 272 72 196 229 248 259 265 280 272 288 304 295 204 223 275 295 297 329 349 328 343 92 86 62 302 311 322 331 342 346 346 346 333 301 269 254 239 230 229 226 218 208 202 198 199 202 206 211 211 212 213 214 216 218 220 223 225 227 229 230 231 232 234 237 238 238 237 233 231 230 228 228 228 228 228
130 182 192 187 196 214 223 240 170 179 220 282 81 222 228 248 264 257 269 273 289 308 295 187 186 265 271 275 303 344 327 319 295 319 326 326 333 331 332 346 350 351 352 348 331 270 234 220 219 217 208 195 185 183 184 189 196 202 206 208 209 210 212 214 217 219 222 225 226 228 230 231 230 231 231 232 234 234 232 230 228 225 225 226 226 226
69 171 207 190 201 221 205 147 165 186 205 48 117 219 240 235 251 240 254 278 286 280 288 173 173 258 285 280 292 348 308 302 312 318 320 321 325 320 323 335 338 342 353 359 357 305 185 194 200 193 184 177 175 181 187 194 202 206 210 212 213 214 216 217 218 219 221 223 225 226 229 230 230 229 228 227 226 227 227 227 226 224 223 223 223 223
289 86 356 215 220 215 129 101 165 195 173 42 200 249 272 237 216 217 237 273 269 253 285 88 181 244 292 291 283 19 39 342 318 314 314 318 319 313 317 325 327 331 345 4 8 44 138 163 173 170 172 175 181 189 195 204 209 214 217 215 216 216 218 220 220 221 223 224 225 227 228 228 228 227 226 226 224 224 225 225 225 224 223 223 222 223
244 227 213 209 200 142 118 134 162 151 55 299 262 299 302 274 213 216 189 177 250 255 105 91 237 231 248 272 286 277 278 291 303 310 310 312 313 312 316 324 325 325 329 353 7 19 116 150 163 169 178 185 194 202 208 215 218 222 223 219 220 219 218 219 220 222 224 226 227 228 228 227 225 224 224 225 226 226 227 228 228 226 225 225 224 225
239 231 200 172 183 172 180 191 159 147 169 211 228 267 289 294 284 257 224 197 246 269 107 114 309 241 243 262 273 277 284 298 313 314 306 304 305 308 314 321 324 322 318 325 354 16 37 162 181 193 204 207 213 220 224 230 231 232 231 227 225 222 220 219 218 220 222 224 227 228 229 228 226 226 226 227 228 229 230 230 231 230 230 229 229 229
238 227 171 173 185 178 191 208 216 189 170 187 202 214 243 270 283 259 253 269 263 293 126 131 327 277 263 261 258 264 280 312 315 302 301 301 298 303 313 326 334 337 322 306 295 303 316 277 255 237 232 232 232 233 234 235 235 234 234 230 225 222 220 217 216 217 218 220 222 224 226 227 229 230 231 232 233 233 233 232 232 232 231 232 233 234
237 269 159 170 138 170 194 213 266 126 153 185 183 202 241 239 261 271 285 291 297 324 245 163 286 269 268 307 289 278 290 301 294 299 310 310 307 318 335 353 6 13 355 318 284 279 270 251 262 256 247 243 234 229 225 220 219 220 220 218 216 214 212 210 210 211 213 214 216 220 223 224 228 231 232 235 236 235 235 234 233 232 231 231 232 232
232 278 102 105 5 184 197 199 43 109 165 176 130 193 248 231 237 263 328 341 311 311 261 197 242 256 271 297 297 294 298 288 274 310 325 327 344 4 13 20 26 28 19 357 317 293 252 219 250 259 250 232 214 206 203 198 195 193 194 195 194 193 193 194 197 200 205 209 213 217 221 223 226 229 231 232 233 233 233 233 233 232 232 232 231 229
213 276 84 102 204 136 240 103 70 244 191 149 162 197 221 26 260 244 224 77 220 275 264 205 253 276 290 289 280 287 322 3 53 15 350 350 11 28 32 33 36 36 30 19 359 335 265 210 225 241 226 199 190 187 182 178 177 177 177 177 175 175 177 178 183 190 196 203 209 214 218 222 226 229 232 233 234 234 233 233 232 231 231 230 229 228
210 252 102 155 168 98 352 247 103 6 334 150 183 190 113 80 308 271 267 279 240 265 269 205 259 281 303 296 301 355 343 357 20 18 14 7 16 29 31 34 38 36 30 25 19 7 341 245 217 216 207 194 186 185 183 180 179 176 173 171 168 167 169 172 180 191 202 211 217 223 226 229 231 233 235 236 236 235 234 234 233 233 233 231 231 230
204 242 151 136 167 103 153 208 141 90 10 31 272 88 89 226 179 148 248 275 270 279 283 234 263 269 229 252 305 328 336 353 3 6 15 16 16 16 16 24 30 25 18 16 17 15 8 344 269 216 203 201 198 197 195 190 187 183 177 172 166 161 159 159 163 170 193 216 230 240 244 245 245 245 245 244 243 241 240 240 239 239 239 237 235 233
192 240 223 149 289 71 174 217 192 166 135 63 241 172 189 283 251 163 201 267 258 279 299 292 285 258 215 221 286 295 310 337 345 354 8 1 355 359 7 15 19 14 7 3 1 4 9 4 342 275 223 213 211 211 205 197 194 189 182 175 168 162 154 147 144 143 152 181 235 259 262 261 259 257 255 254 252 250 249 247 245 245 244 242 240 237
166 226 229 140 187 222 195 207 205 182 167 177 196 187 185 188 330 271 221 189 259 262 287 292 288 279 237 195 243 265 290 320 312 313 318 320 317 317 343 355 1 357 352 348 346 346 351 357 355 330 274 241 226 222 215 208 206 201 193 185 179 173 167 162 162 176 210 242 265 272 275 274 272 269 265 262 260 258 256 252 249 247 245 243 242 239
180 207 207 156 182 214 200 78 329 266 169 179 198 194 189 177 173 226 222 176 252 254 260 292 293 290 276 189 221 246 283 280 250 263 289 307 312 315 322 332 340 340 336 335 335 336 337 340 345 342 313 275 250 240 235 229 226 221 214 207 201 193 186 187 198 226 251 267 275 275 273 270 271 272 271 269 267 266 264 260 257 252 247 244 241 239
128 182 208 199 200 196 68 52 350 316 10 70 249 212 190 193 199 219 230 191 165 207 6 24 288 286 299 92 82 89 274 293 259 230 285 307 311 318 322 324 328 329 326 325 326 328 329 329 330 331 324 300 276 264 260 257 253 249 242 232 224 216 205 204 218 240 256 265 270 271 271 271 270 269 270 272 272 270 267 264 261 256 251 248 244 240
118 183 212 234 229 112 77 85 96 357 46 210 247 216 198 209 211 223 243 167 160 180 168 186 237 253 354 53 81 151 228 262 225 214 258 297 308 317 319 317 321 322 319 318 319 321 323 322 322 321 317 308 293 281 273 269 268 266 261 253 243 230 219 220 234 252 263 268 270 269 269 269 269 267 269 273 276 274 267 260 258 255 252 250 246 242
174 188 190 209 221 173 164 165 164 216 217 221 226 197 203 209 182 106 71 188 221 203 191 215 241 240 42 26 251 237 258 265 252 240 275 304 310 313 312 310 312 314 313 313 315 316 317 316 315 315 314 311 303 293 285 277 273 272 270 264 258 249 239 237 247 262 269 269 269 268 268 269 266 264 265 267 271 273 269 261 255 253 252 250 247 244
177 193 179 190 213 211 204 191 192 190 179 204 222 199 203 200 182 168 188 208 214 199 197 219 245 249 242 316 286 284 290 292 295 298 302 303 300 299 301 303 306 308 308 309 310 312 312 311 310 310 312 313 309 301 293 284 278 277 276 271 265 261 257 254 258 265 267 266 267 267 266 266 264 263 262 261 262 266 267 263 257 252 251 250 248 246
165 242 198 214 231 227 223 173 152 128 143 178 204 200 202 201 194 195 214 215 206 217 218 209 235 258 256 273 285 280 282 287 290 298 300 295 289 288 292 296 300 302 303 304 306 306 307 308 309 310 311 312 311 307 300 292 287 286 286 282 273 268 264 262 262 263 262 263 267 267 264 262 262 262 261 259 259 261 262 261 259 254 251 249 247 245
128 232 206 227 240 246 278 128 146 170 197 199 199 200 202 200 198 203 215 207 191 230 241 193 217 255 255 212 271 276 277 278 282 290 291 289 288 288 290 293 297 298 299 301 302 302 303 305 308 311 312 311 310 309 306 302 299 298 296 294 288 281 274 269 265 263 262 262 263 261 259 259 260 259 257 257 256 257 257 257 258 256 250 247 245 244
233 235 198 208 233 241 241 212 184 201 234 227 214 214 205 196 199 207 217 208 192 227 243 182 201 241 244 216 253 268 273 271 275 282 282 283 286 285 287 294 299 297 296 297 298 299 301 303 306 309 310 311 310 309 309 307 304 302 299 296 291 286 282 278 273 269 265 262 260 258 257 256 255 254 252 251 252 253 254 255 256 254 250 246 244 243
234 236 185 187 231 239 227 223 212 215 239 245 232 227 213 202 202 207 214 213 213 231 243 224 228 242 243 233 243 257 271 275 275 276 277 278 276 277 287 298 296 291 292 295 297 298 301 302 304 307 308 310 311 309 308 307 304 302 298 293 286 282 281 278 273 268 264 261 259 258 257 252 248 247 246 246 248 251 252 254 255 253 249 246 244 243
224 229 134 149 238 245 220 218 222 226 241 249 240 227 216 214 210 211 218 216 221 237 244 247 254 253 239 241 248 254 273 281 278 267 267 273 276 282 293 293 285 284 289 294 297 300 302 303 304 306 306 308 309 309 307 304 301 298 295 291 286 281 278 273 268 265 262 260 260 260 257 251 245 243 242 242 244 247 250 253 254 252 248 244 243 241
216 233 94 124 243 248 197 197 226 235 252 261 254 233 216 218 212 210 216 206 212 233 238 238 254 256 227 238 259 262 264 271 273 269 269 276 285 293 286 275 277 284 290 295 298 300 302 304 305 306 306 307 308 309 307 303 299 296 292 289 286 280 275 271 267 265 264 262 262 261 259 255 248 243 241 241 242 244 248 251 253 252 248 244 242 240
191 209 163 166 234 254 138 149 192 218 258 265 258 216 204 214 216 217 219 207 208 220 230 235 245 250 222 231 257 262 253 253 261 272 283 292 307 293 281 277 285 291 293 296 298 300 302 305 307 308 308 311 313 314 313 309 304 300 293 288 284 278 274 270 265 263 261 260 259 258 257 256 250 243 242 241 240 241 245 249 252 251 248 245 242 239
179 206 197 180 225 256 93 107 109 214 244 258 288 146 189 205 212 221 226 219 214 213 229 248 254 262 254 244 246 252 252 252 260 284 305 293 287 289 290 292 293 293 295 298 301 304 307 311 314 316 315 317 320 322 323 320 313 306 299 292 285 278 273 269 264 260 258 255 255 254 253 252 248 244 243 240 237 237 242 248 251 251 249 245 241 239
170 196 198 193 230 243 113 113 187 228 236 262 63 108 188 205 210 228 237 232 223 220 231 247 257 259 258 255 250 248 253 264 283 305 296 283 282 287 288 289 290 293 298 303 309 314 319 321 322 322 323 325 329 334 337 336 329 319 310 305 297 286 275 268 263 260 258 256 255 254 253 251 247 244 241 236 233 236 242 247 249 250 249 246 243 240
170 176 179 181 189 205 178 180 217 249 298 309 270 179 107 122 158 249 261 247 227 228 237 243 251 254 254 256 254 252 263 291 305 297 285 282 285 287 283 283 290 297 302 307 316 324 329 330 327 329 335 337 340 347 349 349 349 345 337 328 317 306 293 279 269 263 260 259 257 255 253 251 247 244 240 237 238 242 245 247 248 250 250 247 244 241
191 182 187 207 198 212 232 220 238 285 305 292 259 208 170 198 193 202 256 246 203 214 234 235 243 248 246 252 258 262 298 335 307 285 285 291 298 295 289 290 295 301 305 312 325 332 331 331 331 334 340 343 349 356 358 358 359 0 1 0 351 338 324 308 294 285 275 269 263 258 256 254 251 247 244 244 246 247 247 247 248 251 251 248 245 241
217 206 200 214 209 201 231 244 251 266 273 265 161 152 187 212 188 175 252 261 174 202 226 222 230 242 242 253 265 278 52 294 268 276 292 315 340 324 314 320 312 307 309 318 327 328 326 326 328 333 339 346 355 0 0 360 0 1 4 7 9 5 357 345 331 318 307 296 283 270 261 257 254 252 249 248 247 246 246 247 250 253 253 249 246 241
218 220 214 218 220 199 213 230 226 237 253 198 109 121 181 156 130 136 262 272 187 206 229 224 228 241 245 257 271 113 152 261 260 271 301 332 354 342 328 326 320 312 309 314 319 321 323 325 327 332 338 346 354 357 356 356 356 356 357 0 5 6 4 1 355 345 334 323 310 296 280 266 260 257 252 248 245 243 245 248 252 255 253 248 244 238
205 214 211 211 221 212 208 226 231 241 262 211 114 46 125 128 132 167 252 298 198 229 333 354 284 277 300 304 304 196 209 255 279 296 312 321 322 321 320 319 319 318 316 321 326 327 325 324 323 325 331 338 344 346 346 346 347 347 347 350 354 356 357 358 356 353 348 338 324 312 302 289 275 264 255 251 249 249 251 253 254 254 251 245 239 233
196 203 203 206 219 214 211 229 242 246 254 239 152 125 138 135 146 203 214 8 10 1 11 17 9 3 4 347 332 313 289 315 335 334 331 327 322 319 315 314 323 332 331 332 331 324 316 310 308 311 319 327 332 333 333 334 335 336 337 339 342 344 347 350 350 349 346 340 330 316 306 300 290 278 267 261 260 259 259 258 256 253 247 241 235 229
188 194 201 207 213 214 218 230 244 263 263 244 163 142 159 171 212 237 178 34 20 9 15 23 21 12 4 349 343 340 332 339 348 350 350 346 337 331 325 324 329 330 327 326 321 313 306 298 295 297 303 313 319 321 323 323 324 325 325 327 330 331 334 338 340 341 340 336 330 317 303 297 292 285 278 272 268 266 263 260 255 249 242 236 231 226
175 181 194 203 205 210 221 221 223 255 261 192 158 171 201 193 244 299 341 23 27 18 13 19 20 10 360 348 346 346 345 349 353 354 355 354 349 343 336 333 331 325 319 315 309 305 301 295 294 295 298 305 309 308 311 313 314 316 315 317 321 321 323 326 328 330 330 327 323 316 302 292 286 283 280 275 270 267 264 260 253 245 238 233 229 224
178 180 190 202 193 183 203 213 209 240 9 75 121 150 98 71 38 11 11 27 27 20 13 9 8 7 3 353 349 352 356 357 356 356 354 352 350 345 338 336 333 326 320 312 302 297 293 292 296 296 296 301 301 297 299 302 305 309 310 312 316 317 318 320 320 321 320 315 314 310 299 289 282 279 277 272 267 263 259 255 249 241 235 231 228 224
195 189 188 201 193 192 206 189 111 84 59 57 70 87 88 72 49 47 58 53 30 19 15 5 357 1 3 358 355 359 360 359 359 360 358 356 354 349 343 342 338 331 327 322 314 307 298 290 289 288 289 295 295 291 292 294 300 307 308 311 314 312 311 312 311 312 311 306 304 303 296 289 281 275 273 267 261 256 251 245 240 235 230 226 224 223
190 228 316 189 184 207 209 107 86 86 77 74 79 83 76 61 47 44 49 46 30 18 15 9 2 3 3 360 358 357 355 354 354 354 355 356 355 353 351 348 343 337 332 327 322 318 312 303 292 281 276 281 283 282 284 287 295 303 308 312 314 309 304 300 298 300 299 296 295 294 291 288 282 273 267 261 254 249 243 236 230 227 224 220 218 218
55 19 330 198 182 207 203 83 75 86 87 85 86 78 63 53 45 40 40 35 22 13 12 10 6 4 1 357 355 351 349 349 348 346 348 349 348 349 351 350 348 346 341 334 327 321 315 311 304 293 283 281 277 275 277 280 286 295 303 311 313 311 306 298 291 290 288 286 287 286 280 275 269 262 256 252 246 241 237 233 226 222 220 217 214 213
26 21 22 241 259 195 129 62 68 109 99 76 61 51 43 36 32 33 34 24 12 7 6 2 359 357 353 350 348 343 340 341 341 340 342 342 340 341 343 344 345 346 344 341 334 325 318 314 310 305 302 299 292 283 279 278 280 286 296 304 307 306 303 298 292 288 286 283 282 280 273 264 256 250 245 240 235 231 230 229 225 223 220 217 214 213
325 337 11 6 330 213 119 53 48 127 118 67 43 31 22 19 19 20 21 14 7 3 359 354 353 353 346 343 343 339 335 334 333 333 334 334 333 333 334 336 338 338 338 338 335 331 326 320 315 311 307 304 300 295 289 284 281 282 287 292 294 294 293 291 288 285 283 280 277 273 267 259 252 246 240 235 230 225 223 222 222 222 221 219 216 214
331 325 3 12 328 266 98 40 23 356 198 35 19 11 6 5 2 4 10 9 3 0 357 352 350 348 342 339 340 338 334 330 329 328 327 327 327 327 327 329 329 329 330 330 328 327 326 323 319 315 309 304 301 297 293 290 286 283 283 284 282 277 276 278 279 277 274 271 267 263 259 253 247 241 236 232 229 225 220 216 213 214 216 218 216 214
11 23 14 352 284 46 54 33 7 355 279 309 341 351 355 353 353 357 0 358 355 355 355 352 349 342 337 337 338 336 332 328 326 323 320 320 320 320 320 322 323 323 323 323 322 321 320 318 316 312 307 302 298 293 289 287 285 282 281 281 279 271 264 263 265 266 263 259 256 253 249 245 240 234 229 225 223 223 220 215 209 205 205 207 207 206